Regional Weather Roundup
Issued by NWS

Home | Current Version | Previous Version | Graphics & Text | Print | Product List | Glossary On
Versions: 1 2 3 4 5 6 7 8 9 10 11 12 13 14 15 16 17 18 19 20 21 22 23 24 25 26 27 28 29 30 31 32 33 34 35 36 37 38 39 40 41 42 43 44 45 46 47 48 49 50
000
ASUS43 KLSX 251007
RWRMO

WEATHER SUMMARY FOR MISSOURI
NATIONAL WEATHER SERVICE SPRINGFIELD MO
400 AM CST SUN JAN 25 2015

NOTE: "FAIR" INDICATES FEW OR NO CLOUDS BELOW 12,000 FEET WITH NO
       SIGNIFICANT WEATHER AND/OR OBSTRUCTIONS TO VISIBILITY.
       CURRENT SKY AND/OR WEATHER CONDITIONS ARE NOT AVAILABLE FOR
       CHILLICOTHE AND FARMINGTON.

MOZ001>031-035>038-043-044-053-054-251100-
...NORTHERN AND WESTERN MISSOURI...

CITY           SKY/WX    TMP DP  RH WIND       PRES   REMARKS
KANSAS CTY INT CLOUDY    45  39  79 NW14G20   29.63F
KANSAS C DTWN  PTCLDY    48  39  71 W10G20    29.63F
LEE`S SUMMIT   CLOUDY    46  39  76 W12G20    29.63F
ST JOSEPH      MOCLDY    44  39  82 NW17      29.63F
CHILLICOTHE      N/A     45  41  86 W8        29.58F
KIRKSVILLE     LGT RAIN  40  39  97 S6        29.56S

$$
MOZ066>068-077>081-088>096-101>105-251100-
...SOUTHWEST MISSOURI...

CITY           SKY/WX    TMP DP  RH WIND       PRES   REMARKS
SPRINGFIELD    CLOUDY    49  32  52 SW12      29.67F
JOPLIN         CLOUDY    49  33  54 W13       29.72S

$$
MOZ032>034-039>042-045>050-055>058-069>072-251100-
...CENTRAL MISSOURI...

CITY           SKY/WX    TMP DP  RH WIND       PRES   REMARKS
COLUMBIA       LGT RAIN  44  44 100 SW9       29.59F
JEFFERSON CITY CLOUDY    47  42  83 SW3       29.61F
ROLLA          CLOUDY    44  38  79 SW9       29.61F
SEDALIA        CLOUDY    47  43  86 W14G21    29.62F
WHITEMAN AFB   MOCLDY    46  43  91 W12       29.62F
WARRENSBURG    CLOUDY    45  41  87 W7        29.63S
OSAGE BEACH    CLOUDY    45  39  81 W8        29.64F

$$
MOZ051-052-059>065-251100-
...EAST CENTRAL MISSOURI...

CITY           SKY/WX    TMP DP  RH WIND       PRES   REMARKS
ST LOUIS INTL  LGT RAIN  48  39  71 SW9       29.63F
SPIRIT OF STL  LGT RAIN  45  40  82 SW3       29.61F
ST CHARLES     LGT RAIN  44  39  82 SW8       29.62F

$$
MOZ072>076-082>087-097>100-106>115-251100-
...SOUTH CENTRAL AND SOUTHEAST MISSOURI...

CITY           SKY/WX    TMP DP  RH WIND       PRES   REMARKS
CAPE GIRARDEAU CLOUDY    41  33  73 S9        29.71F
FARMINGTON     CLOUDY    45  30  57 MISG      29.69S
POPLAR BLUFF   PTCLDY    40  32  73 SW8       29.72F
WEST PLAINS    CLOUDY    45  31  58 SW6       29.69F

$$



USA.gov is the U.S. government's official web portal to all federal, state and local government web resources and services.